Regional Weather Roundup
Issued by NWS

Home | Current Version | Previous Version | Text Only | Print | Product List | Glossary On
Versions: 1 2 3 4 5 6 7 8 9 10 11 12 13 14 15 16 17 18 19 20 21 22 23 24 25 26 27 28 29 30 31 32 33 34 35 36 37 38 39 40 41 42 43 44 45 46 47
000
ASCA42 TJSJ 082110
RWRPR
PUERTO RICO/U.S. VIRGIN ISLANDS HOURLY WEATHER ROUNDUP
NATIONAL WEATHER SERVICE SAN JUAN PR
500 PM AST MON FEB 08 2016

PRZ001-004-082200-
PUERTO RICO

CITY           SKY/WX    TMP DP  RH WIND       PRES   REMARKS
SAN JUAN LMM   MOSUNNY   84  66  54 S12       29.96S
AGUADILLA      MOSUNNY   81  72  74 NE6       29.98S
CEIBA          SUNNY     82  72  69 S7        30.01R
$$

PRZ006-007-082200-
U.S. VIRGIN ISLANDS

CITY           SKY/WX    TMP DP  RH WIND       PRES   REMARKS
CHARLOTTE AMA  SUNNY     81  72  74 E9        29.98F
CHRISTIANSTED  MOSUNNY   82  72  69 SE9       30.00S
$$

HOURLY WEATHER ROUNDUP FOR THE NEWS MEDIA

CITY           SKY/WX    TMP DP  RH WIND       PRES   REMARKS
ORLANDO        PTSUNNY   67  43  41 SW18G25   29.90F
NEW YORK       FLURRIES  31  23  72 NE16G24   29.74S WCI  20
NEWARK         CLOUDY    35  23  61 NE13      29.73S WCI  26
CHICAGO        CLOUDY    28  21  75 W14       29.68R WCI  17
HARTFORD       LGT SNOW  23  19  85 N12G24    29.63R FOG     WCI  12
BOSTON         SNOW      20  15  81 N18G28    29.73R VSB 1/2 WCI   5
DALLAS         MOSUNNY   55   9  16 N26G37    30.25F
PHILADELPHIA   CLOUDY    42  25  50 SE3       29.73R
LOS ANGELES    SUNNY     86  23  10 CALM      30.10F
WASHINGTON DC  PTSUNNY   44  24  45 SE6       29.67S


USA.gov is the U.S. government's official web portal to all federal, state and local government web resources and services.